User: anonymous   Login
Location: Bacea
(45.9500°N, 22.6667°E)
Time: 03:53:30
(UTC+00:00)
Language:

Cosmos 1300 - Orbit

View from above orbital plane
View from above orbital plane
View from above satellite
View from above satellite

Ground track
Ground track

The orbit data is extracted from the following two-line orbital elements,

1 12785U 81082A   22026.93069661  .00001616  00000-0  76718-4 0  9991
2 12785  82.5020 205.6163 0002167 114.8946 358.0850 15.18573099207358
Epoch (UTC): 26 January 2022 22:20:12
Eccentricity: 0.0002167
inclination: 82.5020°
perigee height: 508 km
apogee height: 511 km
right ascension of ascending node: 205.6163°
argument of perigee: 114.8946°
revolutions per day: 15.18573099
mean anomaly at epoch: 358.0850°
orbit number at epoch: 20735

The dashed part of the orbit path shows where the satellite is in the earth's shadow,  

DLR